Fosston, MN

6:54 PM CST on December 16, 2017 (GMT -0600)
Fosston Municipal

Weather History for KFSE - January, 2013

Change the Weather History Date:

Sunday, January 20, 2013

  Actual Average Record
Temperature  
Mean Temperature -9 °F -  
Max Temperature -2 °F 18 °F 42 °F (1964)
Min Temperature -16 °F -2 °F -32 °F (1970)
Degree Days  
Heating Degree Days 74    
Moisture  
Dew Point -16 °F    
Average Humidity 76    
Maximum Humidity 92    
Minimum Humidity 60    
Precipitation  
Precipitation 0.00 in - - ()
Sea Level Pressure  
Sea Level Pressure 30.28 in    
Wind  
Wind Speed 8 mph (WNW)    
Max Wind Speed 18 mph    
Max Gust Speed 25 mph    
Visibility 6 miles    
Events Snow    
Averages and records for this station are not official NWS values.
T = Trace of Precipitation, MM = Missing Value Source: NWS Daily Summary

Daily Weather History Graph

Daily Weather History Graph

Search for Another Location

Airport or City:

Trip Planner

Search our weather history database for the weather conditions in past years. The results will help you decide how hot, cold, wet, or windy it might be!

Date:

Astronomy

Jan. 20, 2013 Rise Set
Actual Time 8:02 AM CST 5:06 PM CST
Civil Twilight 7:28 AM CST 5:40 PM CST
Nautical Twilight 6:50 AM CST 6:18 PM CST
Astronomical Twilight 6:13 AM CST 6:55 PM CST
Moon 12:09 PM CST (1/20) 2:33 AM CST (1/20)
Length of Visible Light 10h 12m
Length of Day
9h 04m
Waxing Gibbous, 66% of the Moon is Illuminated
Jan 20
Waxing Gibbous
Jan 26
Full
Feb 3
Last Quarter
Feb 10
New
Feb 17
First Quarter

Hourly Weather History & Observations

Time (CST) Temp. Windchill Dew Point Humidity Pressure Visibility Wind Dir Wind Speed Gust Speed Precip Events Conditions
12:15 AM -11.2 °F -26.4 °F -16.6 °F 77% 30.26 in 5.0 mi NW 6.9 mph - N/A   Haze
12:35 AM -13.0 °F -27.0 °F -16.6 °F 84% 30.25 in 10.0 mi NW 5.8 mph - N/A   Scattered Clouds
12:55 AM -13.0 °F -30.0 °F -16.6 °F 84% 30.25 in 7.0 mi WNW 8.1 mph - N/A   Clear
2:35 AM -14.8 °F -30.8 °F -18.4 °F 84% 30.29 in 10.0 mi West 6.9 mph - N/A   Clear
2:55 AM -14.8 °F -30.8 °F -18.4 °F 84% 30.30 in 10.0 mi West 6.9 mph - N/A   Clear
3:15 AM -14.8 °F -32.2 °F -18.4 °F 84% 30.30 in 10.0 mi West 8.1 mph - N/A   Scattered Clouds
3:35 AM -14.8 °F -29.1 °F -18.4 °F 84% 30.30 in 10.0 mi WNW 5.8 mph - N/A   Mostly Cloudy
3:55 AM -14.8 °F - -18.4 °F 84% 30.29 in 10.0 mi Calm Calm - N/A   Mostly Cloudy
4:15 AM -14.8 °F -27.2 °F -18.4 °F 84% 30.29 in 10.0 mi West 4.6 mph - N/A   Scattered Clouds
4:35 AM -14.8 °F - -20.2 °F 77% 30.28 in 10.0 mi Calm Calm - N/A   Scattered Clouds
4:55 AM -14.8 °F - -20.2 °F 77% 30.28 in 10.0 mi Calm Calm - N/A   Scattered Clouds
5:15 AM -16.6 °F - -20.2 °F 84% 30.27 in 10.0 mi Calm Calm - N/A   Clear
5:35 AM -16.6 °F - -22.0 °F 76% 30.27 in 10.0 mi Calm Calm - N/A   Clear
5:55 AM -16.6 °F - -20.2 °F 84% 30.27 in 10.0 mi Calm Calm - N/A   Clear
6:15 AM -16.6 °F - -22.0 °F 76% 30.27 in 10.0 mi Calm Calm - N/A   Clear
6:35 AM -16.6 °F - -23.8 °F 70% 30.27 in 10.0 mi Calm Calm - N/A   Clear
6:55 AM -16.6 °F - -20.2 °F 84% 30.28 in 10.0 mi Calm Calm - N/A   Scattered Clouds
7:16 AM -14.8 °F - -18.4 °F 84% 30.28 in 10.0 mi Calm Calm - N/A   Overcast
7:35 AM -13.0 °F - -16.6 °F 84% 30.29 in 7.0 mi Calm Calm - N/A Snow Light Snow
7:55 AM -11.2 °F - -16.6 °F 77% 30.28 in 2.5 mi Calm Calm - N/A Snow Light Snow
8:16 AM -11.2 °F -23.0 °F -16.6 °F 77% 30.28 in 2.5 mi SW 4.6 mph - N/A Snow Light Snow
8:35 AM -9.4 °F -22.7 °F -14.8 °F 77% 30.28 in 2.0 mi SW 5.8 mph - N/A Snow Light Snow
9:35 AM -7.6 °F -24.6 °F -11.2 °F 84% 30.29 in 5.0 mi WSW 9.2 mph - N/A Snow Light Snow
9:55 AM -7.6 °F -24.6 °F -9.4 °F 92% 30.29 in 7.0 mi WSW 9.2 mph - N/A   Mostly Cloudy
10:15 AM -5.8 °F -22.4 °F -9.4 °F 84% 30.29 in 10.0 mi WSW 9.2 mph - N/A   Overcast
10:35 AM -4.0 °F -21.2 °F -9.4 °F 78% 30.30 in 7.0 mi West 10.4 mph - N/A   Mostly Cloudy
10:55 AM -2.2 °F -18.9 °F -9.4 °F 71% 30.30 in 10.0 mi West 10.4 mph - N/A   Mostly Cloudy
11:15 AM -2.2 °F -23.5 °F -9.4 °F 71% 30.30 in 7.0 mi WNW 17.3 mph 21.9 mph N/A   Overcast
11:35 AM -2.2 °F -22.9 °F -11.2 °F 66% 30.30 in 3.0 mi WNW 16.1 mph - N/A   Haze
11:55 AM -2.2 °F -22.9 °F -11.2 °F 66% 30.29 in 1.8 mi WNW 16.1 mph - N/A   Haze
12:15 PM -2.2 °F -19.9 °F -11.2 °F 66% 30.29 in 4.0 mi WNW 11.5 mph - N/A   Haze
12:35 PM -2.2 °F -18.9 °F -11.2 °F 66% 30.29 in 1.5 mi WNW 10.4 mph - N/A   Haze
12:55 PM -2.2 °F -20.7 °F -11.2 °F 66% 30.28 in 2.5 mi WNW 12.7 mph 19.6 mph N/A   Haze
1:15 PM -2.2 °F -20.7 °F -11.2 °F 66% 30.28 in 1.8 mi WNW 12.7 mph - N/A   Haze
1:35 PM -2.2 °F -22.2 °F -11.2 °F 66% 30.28 in 1.2 mi WNW 15.0 mph 20.7 mph N/A   Haze
1:55 PM -2.2 °F -24.1 °F -13.0 °F 60% 30.28 in 2.0 mi WNW 18.4 mph 23.0 mph N/A   Haze
2:35 PM -2.2 °F -22.2 °F -13.0 °F 60% 30.28 in 4.0 mi WNW 15.0 mph 19.6 mph N/A   Haze
2:55 PM -4.0 °F -22.1 °F -11.2 °F 71% 30.27 in 3.0 mi WNW 11.5 mph - N/A   Haze
3:15 PM -4.0 °F -22.1 °F -13.0 °F 65% 30.28 in 7.0 mi WNW 11.5 mph 16.1 mph N/A   Mostly Cloudy
4:15 PM -7.6 °F -28.3 °F -14.8 °F 71% 30.28 in 7.0 mi WNW 13.8 mph 18.4 mph N/A   Scattered Clouds
4:35 PM -7.6 °F -26.6 °F -14.8 °F 71% 30.29 in 7.0 mi WNW 11.5 mph - N/A   Scattered Clouds
4:55 PM -7.6 °F -24.6 °F -14.8 °F 71% 30.28 in 7.0 mi WNW 9.2 mph - N/A   Scattered Clouds
5:15 PM -9.4 °F -25.6 °F -16.6 °F 71% 30.27 in 10.0 mi WNW 8.1 mph - N/A   Clear
5:35 PM -9.4 °F -27.9 °F -16.6 °F 71% 30.27 in 10.0 mi WNW 10.4 mph - N/A   Clear
5:55 PM -11.2 °F -27.8 °F -16.6 °F 77% 30.26 in 10.0 mi WNW 8.1 mph - N/A   Clear
6:15 PM -11.2 °F -29.0 °F -16.6 °F 77% 30.26 in 7.0 mi West 9.2 mph - N/A   Scattered Clouds
6:35 PM -11.2 °F -29.0 °F -14.8 °F 84% 30.26 in 5.0 mi West 9.2 mph - N/A   Mostly Cloudy
6:55 PM -11.2 °F -32.9 °F -16.6 °F 77% 30.26 in 5.0 mi WNW 13.8 mph 24.2 mph N/A   Haze
7:15 PM -11.2 °F -33.7 °F -18.4 °F 70% 30.26 in 10.0 mi WNW 15.0 mph 25.3 mph N/A   Mostly Cloudy
7:35 PM -11.2 °F -35.2 °F -18.4 °F 70% 30.26 in 10.0 mi WNW 17.3 mph 24.2 mph N/A   Clear
7:55 PM -13.0 °F -34.3 °F -18.4 °F 77% 30.26 in 7.0 mi WNW 12.7 mph 18.4 mph N/A   Mostly Cloudy
8:15 PM -13.0 °F -34.3 °F -18.4 °F 77% 30.25 in 1.8 mi WNW 12.7 mph 17.3 mph N/A Snow Light Snow
8:35 PM -13.0 °F -37.5 °F -18.4 °F 77% 30.25 in 1.5 mi WNW 17.3 mph - N/A Snow Light Snow
8:55 PM -14.8 °F -39.1 °F -20.2 °F 77% 30.25 in 5.0 mi WNW 16.1 mph 21.9 mph N/A   Haze
9:15 PM -14.8 °F -37.5 °F -20.2 °F 77% 30.26 in 5.0 mi WNW 13.8 mph 21.9 mph N/A   Haze
9:35 PM -14.8 °F -37.5 °F -20.2 °F 77% 30.26 in 3.0 mi WNW 13.8 mph 19.6 mph N/A   Haze
9:55 PM -14.8 °F -38.3 °F -20.2 °F 77% 30.26 in 1.5 mi WNW 15.0 mph 19.6 mph N/A   Haze
10:15 PM -14.8 °F -36.6 °F -20.2 °F 77% 30.27 in 1.0 mi NW 12.7 mph 19.6 mph N/A Snow Light Snow
10:36 PM -16.6 °F -36.8 °F -20.2 °F 84% 30.27 in 2.5 mi NW 10.4 mph - N/A   Haze
10:55 PM -16.6 °F -39.8 °F -22.0 °F 76% 30.27 in 2.5 mi NW 13.8 mph - N/A   Haze
11:15 PM -16.6 °F -38.9 °F -22.0 °F 76% 30.27 in 3.0 mi WNW 12.7 mph 17.3 mph N/A   Haze
11:36 PM -16.6 °F -39.8 °F -22.0 °F 76% 30.27 in 3.0 mi NW 13.8 mph - N/A   Haze